Location: Goettingen
(51.5300°N, 9.9433°E)
Time: 17:27:13
(UTC+02:00)

ISS - Pass Details

Date: 07 May 2026
Orbit: 414 x 424 km, 51.6° (Epoch: 13 May)

Event Time Altitude Azimuth Distance (km) Brightness Sun altitude
Exits shadow 03:19:38 22° 274° (W) 955 -2.2 -16.6°
Maximum altitude 03:21:35 64° 198° (SSW) 466 -3.9 -16.5°
Drops below altitude 10° 03:24:55 10° 116° (ESE) 1,498 -0.9 -16.2°
Sets 03:27:01 0° 113° (ESE) 2,362 0.2 -16.0°
